Weather in Batako

Russia / Republic of North Ossetia — Alania     43°22′39″N   44°32′12″E
temp.,
°C
wind,
m/s
gust,
m/s
humid.,
%
clouds,
%
prec.,
mm/h
press.,
hPa
HPBL,
m
23 june, wed
wed2300:00+21sw33810 0.0 101154
03:00+20sw33830 0.0 101245
06:00+21sw23784 0.0 1012118
09:00+26n21570 0.0 1012501
12:00+30nne22420 0.0 10111026
15:00+31n33410 0.0 10111383
18:00+29nw23530 0.0 1011106
21:00+24w22530 0.0 101212
24 june, thu
thu2400:00+22sw22620 0.0 101213
03:00+20sw2273100 0.0 101222
06:00+21wsw2382100 0.0 1013135
09:00+26wnw33594 0.0 1013556
12:00+29nnw33474 0.0 10121007
15:00+30nnw21450 0.0 10111355
18:00+29nw22550 0.0 1011215
21:00+24w11623 0.0 101211
25 june, fri
fri2500:00+22w117349 0.0 101211
03:00+22sw227797 0.0 101113
06:00+22wsw1280100 0.0 101288
09:00+27nw32656 0.0 1011732
12:00+30nnw325513 0.0 10101431
15:00+31nnw434923 0.0 10101731
18:00+29nnw35580 0.0 1010307
21:00+24w22710 0.0 101016
26 june, sat
sat2600:00+22sw228286 0.0 101013
03:00+21sw118699 0.0 101011
06:00+23wsw118043 0.0 101087
09:00+27nw33643 0.0 1010811
12:00+30nw335547 0.0 10091669
15:00+31nnw324869 0.0 10081925
18:00+27wnw466655 0.0 1009279
21:00+24wsw357850 0.3 101093
27 june, sun
sun2700:00+22ssw228790 1.3 101121
03:00+21w2390100 1.3 101257
06:00+22sw2285100 0.0 1012108
09:00+26nw336899 0.0 1012741
12:00+28n3357100 0.0 10121354
15:00+29n325136 0.0 10111566
18:00+27nnw3562100 0.0 1012387
21:00+23sw228190 1.6 101318